Temp
93 89 85 86 87 87 84 81 79 83 86 84 82 83 85 86 86 84 85 86 86 87 90 87 86 88 86 85 85 84 83 82 83 85 86 85 84 80 84 84 81 80 81 79
89 83 87 89 88 85 84 80 80 83 84 84 82 82 84 84 83 84 85 85 86 88 88 87 87 86 84 84 83 83 83 82 82 86 85 83 82 83 83 83 79 78 77 77
84 85 87 86 85 82 82 80 79 78 81 83 80 79 80 84 86 84 85 87 88 88 89 89 88 87 87 84 84 83 82 82 82 83 84 81 80 79 81 82 82 80 77 76
85 87 85 85 82 84 78 84 81 79 77 73 80 70 77 80 82 85 87 89 91 91 91 89 87 87 87 87 86 84 83 82 82 79 80 76 77 77 80 79 80 76 77 74
80 84 84 82 82 84 78 83 80 79 78 76 75 73 73 80 78 82 86 88 90 92 92 91 90 89 90 88 89 87 82 81 79 77 76 78 77 81 81 80 76 74 76 75
86 89 88 86 84 84 84 82 79 79 79 69 71 71 73 78 79 82 86 89 90 92 92 92 91 89 90 91 90 87 82 80 79 78 77 75 74 74 75 74 74 77 76 75
83 83 87 87 83 86 85 78 71 67 69 65 74 71 73 79 83 84 86 88 91 92 91 90 91 91 90 88 86 87 81 80 79 78 77 76 74 73 72 72 74 70 73 72
75 70 82 85 83 79 79 77 68 55 60 66 74 67 73 83 86 87 89 90 91 89 93 91 91 90 90 87 83 82 81 80 79 79 77 76 75 77 76 75 72 71 70 71
74 73 84 84 86 83 76 73 78 68 69 67 71 74 82 84 84 86 87 89 89 87 88 89 90 88 87 85 82 81 81 80 79 78 77 75 74 72 72 70 69 71 68 70
80 71 81 81 86 83 80 81 70 74 57 56 68 67 72 77 81 84 86 87 87 88 88 88 89 85 85 86 84 81 82 81 79 77 78 76 73 72 71 70 68 67 66 64
82 76 75 80 78 77 78 77 74 73 69 59 59 66 80 78 81 81 84 86 86 87 88 89 90 86 85 86 88 84 82 80 80 78 76 73 67 72 70 69 68 67 66 63
81 77 72 75 80 82 81 76 74 67 63 69 65 66 83 83 84 82 82 85 87 86 86 88 88 87 86 85 85 83 80 80 80 75 74 68 71 69 68 67 67 66 64 63
79 73 66 68 74 78 76 76 75 72 70 64 60 66 83 84 82 82 82 85 84 84 86 86 87 86 86 85 82 80 80 80 77 76 72 71 69 68 66 65 65 63 62 62
73 74 71 67 69 77 70 73 74 71 64 66 68 69 76 78 79 81 82 82 85 85 84 86 85 86 86 83 80 80 79 78 71 72 70 70 69 67 66 65 62 61 61 56
77 71 74 74 75 75 74 72 72 70 72 64 68 69 75 77 78 79 81 82 83 83 83 84 83 83 84 82 82 80 77 71 71 72 71 69 68 67 66 62 60 59 55 53
75 70 73 69 73 73 70 73 73 72 73 71 72 71 79 80 82 80 81 81 81 81 81 81 81 81 80 79 78 77 73 70 71 70 70 69 67 66 62 59 57 54 52 55
74 72 69 65 70 70 64 71 73 73 75 73 66 74 79 77 77 77 78 80 79 79 80 79 79 79 78 76 75 74 72 71 69 69 68 67 66 63 59 55 53 55 56 57
73 72 73 67 66 54 70 77 76 72 74 77 76 76 76 77 78 80 81 79 77 77 77 78 79 78 77 76 75 72 71 69 68 67 67 66 64 58 54 56 56 53 52 52
77 73 69 63 64 68 72 73 71 70 70 78 75 76 77 79 79 75 78 78 76 76 78 79 80 79 75 73 72 71 69 69 68 65 65 63 57 56 57 54 52 50 50 49
73 75 70 68 58 55 70 75 78 76 64 77 76 75 75 77 71 71 75 77 76 77 78 77 78 77 73 71 71 70 68 68 65 64 63 59 60 60 55 55 53 53 50 50
69 70 66 65 62 67 75 75 76 60 63 75 76 75 74 73 73 73 76 76 77 77 77 78 77 74 70 70 70 67 68 64 65 65 61 61 62 57 58 57 57 51 53 57
67 65 65 66 60 56 75 73 66 69 73 75 75 75 73 73 73 74 76 75 75 76 76 77 74 72 69 69 70 67 64 65 66 63 61 62 60 58 59 56 52 53 54 57
65 71 67 66 68 72 75 73 75 74 73 76 75 75 75 73 74 75 74 75 75 75 75 76 73 71 68 68 68 66 64 66 65 59 59 60 58 59 58 57 57 52 56 58
71 72 70 67 75 74 75 77 77 77 76 76 77 75 76 74 74 74 75 74 74 75 74 74 72 70 66 68 67 66 65 65 62 59 60 60 60 59 59 59 59 57 57 57
74 72 71 70 75 76 77 77 78 76 77 77 77 76 75 75 74 75 75 73 74 74 74 73 70 68 66 67 66 66 66 65 60 60 61 61 62 61 57 59 58 59 56 50
75 73 69 69 77 75 76 78 78 75 76 77 75 74 75 75 74 75 74 74 73 73 73 71 69 67 67 67 66 65 65 63 59 60 64 61 64 64 62 58 60 41 43 40
MSLP
1008.20 1007.34 1006.57 1007.00 1007.34 1007.31 1007.50 1007.51 1007.66 1008.28 1008.94 1008.61 1008.65 1008.60 1008.98 1009.64 1009.88 1010.32 1010.85 1011.38 1011.95 1012.49 1013.18 1014.42 1015.18 1015.62 1015.98 1016.35 1016.82 1017.23 1017.47 1017.78 1017.95 1017.80 1017.65 1017.59 1017.73 1018.04 1018.27 1018.28 1018.59 1018.80 1018.63 1018.75
1007.83 1007.14 1007.84 1008.01 1007.97 1007.92 1007.92 1007.83 1007.71 1008.44 1009.20 1009.07 1008.84 1008.53 1009.39 1009.87 1010.19 1010.68 1010.78 1011.15 1011.65 1012.15 1012.87 1013.86 1014.75 1015.46 1015.86 1016.17 1016.65 1016.99 1017.21 1017.46 1017.77 1017.57 1017.71 1018.02 1018.15 1018.05 1018.11 1018.14 1018.77 1018.99 1018.97 1018.86
1007.15 1007.91 1008.67 1008.35 1008.25 1008.07 1008.32 1008.52 1008.65 1008.90 1009.24 1009.25 1009.11 1008.29 1009.09 1009.76 1010.12 1010.71 1011.00 1011.24 1011.53 1011.67 1012.14 1012.92 1013.87 1014.83 1015.39 1015.99 1016.40 1016.66 1017.01 1017.34 1017.73 1017.79 1017.94 1018.32 1018.35 1018.27 1017.82 1017.63 1017.88 1018.04 1018.65 1018.59
1007.79 1008.63 1008.63 1008.36 1008.49 1008.60 1008.21 1009.41 1009.46 1009.31 1009.23 1008.43 1009.50 1007.86 1008.69 1009.65 1009.80 1010.10 1010.42 1010.61 1010.83 1011.27 1011.95 1012.78 1013.55 1014.11 1014.74 1015.36 1015.83 1016.43 1016.83 1017.23 1017.57 1018.00 1017.99 1018.27 1018.09 1017.74 1017.58 1017.85 1017.83 1018.38 1018.15 1018.41
1008.40 1008.46 1008.50 1008.28 1009.05 1009.35 1009.69 1009.97 1009.80 1009.71 1009.18 1009.10 1009.34 1008.72 1009.08 1009.72 1009.60 1009.99 1010.27 1010.50 1010.73 1011.01 1011.62 1012.30 1013.14 1013.85 1014.41 1014.98 1015.25 1015.90 1016.66 1017.11 1017.60 1018.01 1018.25 1018.02 1017.75 1017.57 1017.55 1017.64 1017.72 1017.73 1017.41 1017.61
1008.52 1009.22 1008.94 1009.19 1009.80 1009.90 1010.17 1009.81 1009.90 1009.82 1009.34 1008.67 1009.92 1009.70 1008.73 1009.10 1009.75 1009.95 1010.25 1010.39 1010.56 1010.77 1011.55 1012.26 1013.12 1013.74 1014.13 1014.54 1014.97 1015.51 1016.22 1016.85 1017.38 1017.63 1017.81 1018.00 1018.03 1017.99 1017.81 1017.71 1017.59 1017.01 1017.19 1017.10
1008.78 1009.09 1009.62 1009.78 1009.25 1009.60 1009.57 1009.51 1008.63 1008.95 1008.84 1008.98 1010.18 1009.80 1009.53 1010.05 1010.29 1010.26 1010.07 1010.18 1010.40 1010.82 1011.50 1012.06 1012.61 1013.05 1013.81 1014.34 1014.98 1015.48 1016.02 1016.46 1017.07 1017.31 1017.48 1017.77 1017.99 1018.05 1017.78 1017.64 1017.30 1017.61 1017.08 1017.13
1008.33 1009.23 1009.53 1010.01 1009.78 1009.67 1010.25 1010.38 1010.33 1010.02 1009.86 1009.56 1010.14 1009.66 1009.78 1010.48 1010.50 1010.54 1010.45 1010.47 1010.44 1011.15 1011.25 1011.94 1012.58 1013.35 1013.77 1014.57 1015.18 1015.59 1015.91 1016.24 1016.65 1016.92 1017.30 1017.70 1017.80 1017.58 1017.59 1017.45 1017.85 1017.73 1017.62 1017.34
1008.85 1008.98 1010.09 1010.32 1010.35 1010.71 1010.62 1010.70 1011.69 1011.31 1011.23 1010.19 1010.05 1009.92 1009.38 1010.21 1010.22 1010.32 1010.21 1010.14 1010.40 1011.20 1011.61 1012.11 1012.76 1013.62 1014.13 1014.68 1015.14 1015.51 1015.75 1016.02 1016.45 1016.86 1017.30 1017.50 1017.73 1017.86 1017.88 1017.89 1017.89 1017.54 1017.65 1017.37
1009.55 1009.49 1010.20 1010.95 1010.89 1011.31 1011.14 1011.81 1011.53 1011.14 1011.12 1010.70 1009.97 1009.87 1009.28 1009.79 1009.65 1009.73 1009.70 1009.84 1010.37 1011.24 1011.66 1012.21 1012.88 1013.68 1014.29 1014.60 1015.04 1015.53 1015.71 1015.75 1016.24 1016.74 1016.88 1017.16 1017.62 1017.96 1017.80 1017.85 1017.78 1017.77 1017.76 1017.70
1010.41 1010.46 1010.63 1011.03 1010.65 1010.53 1011.13 1010.90 1012.10 1012.43 1012.33 1011.90 1010.71 1010.03 1010.11 1010.59 1010.58 1010.51 1010.40 1010.41 1010.84 1011.12 1011.60 1012.13 1012.80 1013.68 1014.11 1014.38 1014.56 1015.13 1015.47 1015.74 1016.05 1016.60 1017.21 1017.37 1017.87 1017.53 1017.67 1017.72 1017.65 1017.53 1017.52 1017.47
1011.11 1010.91 1010.40 1010.47 1011.47 1011.63 1011.45 1011.62 1012.07 1012.25 1012.37 1011.86 1012.03 1011.03 1010.97 1011.04 1010.97 1011.17 1011.09 1010.99 1011.11 1011.97 1012.31 1012.58 1012.98 1013.47 1013.88 1014.15 1014.58 1015.02 1015.59 1015.82 1016.02 1016.69 1016.15 1016.98 1017.32 1017.60 1017.54 1017.62 1017.53 1017.42 1017.34 1017.32
1011.92 1011.51 1011.08 1011.39 1011.76 1011.92 1011.51 1012.29 1012.75 1013.12 1013.22 1012.36 1012.07 1011.05 1010.96 1011.24 1011.27 1011.51 1011.56 1011.49 1012.05 1012.50 1012.50 1012.78 1013.16 1013.48 1013.71 1014.13 1014.76 1015.34 1015.49 1015.61 1015.98 1015.72 1016.68 1016.77 1017.23 1017.33 1017.47 1017.50 1017.43 1017.41 1017.29 1017.21
1012.78 1011.92 1011.19 1010.89 1011.06 1011.20 1011.79 1012.29 1012.74 1013.03 1012.83 1012.32 1011.80 1011.52 1011.44 1011.64 1011.85 1011.88 1012.20 1012.43 1012.35 1012.45 1012.90 1013.07 1013.35 1013.45 1013.81 1014.53 1015.06 1015.31 1015.49 1015.92 1016.66 1016.81 1016.79 1016.74 1016.99 1017.31 1017.43 1017.37 1017.38 1017.38 1017.40 1017.43
1012.66 1011.81 1011.81 1011.89 1012.04 1012.08 1012.16 1012.31 1012.67 1012.86 1012.78 1012.84 1012.42 1012.11 1011.90 1012.36 1012.58 1012.80 1012.93 1012.84 1012.76 1012.88 1013.20 1013.48 1013.72 1014.05 1014.39 1014.46 1014.70 1015.05 1015.67 1016.87 1017.14 1016.80 1016.78 1016.87 1017.14 1017.25 1017.23 1017.36 1017.47 1017.59 1017.69 1017.45
1012.82 1012.48 1012.21 1012.32 1012.71 1012.68 1012.45 1012.60 1012.79 1012.86 1012.89 1012.88 1012.54 1012.18 1012.56 1012.85 1012.76 1013.00 1013.19 1013.28 1013.32 1013.63 1014.03 1014.30 1014.45 1014.65 1014.78 1015.01 1015.17 1015.41 1016.31 1016.91 1017.06 1017.01 1016.92 1017.10 1017.22 1017.20 1017.35 1017.57 1017.79 1017.77 1017.52 1017.12
1012.58 1012.64 1012.58 1012.24 1012.96 1013.00 1012.62 1012.16 1012.54 1012.80 1012.85 1012.94 1012.83 1012.73 1013.06 1013.01 1013.53 1013.83 1013.97 1014.01 1014.29 1014.59 1014.78 1014.94 1015.06 1015.22 1015.43 1015.63 1015.88 1015.91 1016.54 1017.08 1017.28 1017.20 1017.13 1017.23 1017.32 1017.36 1017.79 1018.12 1017.97 1017.46 1016.99 1016.61
1012.73 1012.70 1012.79 1012.60 1013.30 1012.85 1012.63 1013.00 1013.18 1013.31 1013.17 1012.97 1013.05 1013.24 1013.62 1013.89 1014.38 1014.62 1014.92 1015.11 1015.39 1015.64 1015.64 1015.56 1015.55 1015.62 1015.98 1016.14 1016.31 1016.68 1017.00 1017.30 1017.39 1017.39 1017.42 1017.47 1017.68 1018.13 1018.45 1017.93 1017.71 1017.77 1017.51 1017.18
1013.19 1012.99 1012.78 1013.00 1012.58 1012.42 1012.57 1012.79 1013.33 1013.28 1013.23 1013.10 1013.38 1013.61 1014.06 1014.30 1014.62 1015.38 1015.81 1016.20 1016.45 1016.44 1016.29 1016.14 1016.05 1016.07 1016.58 1016.78 1017.01 1017.14 1017.37 1017.48 1017.56 1017.76 1017.87 1018.11 1018.68 1018.65 1018.24 1018.24 1018.23 1018.20 1017.87 1017.50
1013.57 1013.51 1013.34 1012.83 1013.13 1012.58 1012.55 1013.27 1013.76 1014.05 1013.47 1013.67 1014.01 1014.23 1014.48 1014.72 1014.33 1015.46 1016.35 1016.85 1016.97 1016.95 1016.85 1016.70 1016.49 1016.49 1016.94 1017.28 1017.40 1017.44 1017.54 1017.67 1017.95 1018.21 1018.36 1018.93 1018.92 1018.55 1018.65 1018.53 1018.38 1018.20 1017.98 1017.71
1013.18 1013.31 1013.13 1012.86 1012.97 1013.07 1013.38 1014.19 1014.57 1014.43 1014.70 1014.53 1014.80 1015.09 1015.26 1015.30 1016.32 1016.94 1017.11 1017.22 1017.37 1017.27 1017.05 1016.91 1016.78 1016.85 1017.53 1017.71 1017.79 1017.80 1017.91 1018.24 1018.54 1018.63 1018.95 1019.11 1018.79 1019.01 1018.74 1018.65 1018.39 1018.56 1018.01 1017.48
1013.10 1013.07 1013.23 1013.65 1013.78 1013.74 1014.40 1014.83 1014.95 1015.46 1015.49 1015.42 1015.58 1015.85 1016.14 1016.61 1017.09 1017.17 1017.30 1017.54 1017.54 1017.27 1017.14 1017.10 1017.00 1017.20 1017.90 1018.12 1018.06 1018.05 1018.55 1018.77 1018.81 1019.03 1019.30 1019.00 1019.30 1019.13 1018.97 1018.93 1018.98 1018.73 1018.35 1017.80
1013.58 1013.79 1013.97 1014.22 1013.80 1014.62 1014.93 1015.07 1015.59 1015.87 1015.72 1015.76 1015.94 1016.38 1016.67 1017.03 1017.20 1017.46 1017.60 1017.59 1017.61 1017.44 1017.41 1017.37 1017.25 1017.32 1018.17 1018.47 1018.57 1018.54 1019.05 1019.04 1018.98 1019.42 1019.47 1019.44 1019.54 1019.30 1019.30 1019.09 1018.83 1018.95 1018.54 1018.12
1013.94 1014.54 1014.20 1014.53 1013.75 1014.31 1014.71 1015.05 1015.51 1015.82 1015.88 1016.19 1016.47 1016.78 1016.99 1017.14 1017.49 1017.56 1017.56 1017.73 1017.70 1017.62 1017.57 1017.52 1017.47 1017.65 1018.34 1018.78 1018.94 1019.20 1019.30 1019.32 1019.47 1019.57 1019.57 1019.70 1019.54 1019.45 1019.43 1019.44 1019.21 1018.93 1018.79 1018.54
1013.83 1014.30 1014.03 1014.06 1013.99 1014.27 1014.40 1014.84 1015.16 1015.80 1016.18 1016.39 1016.77 1017.06 1017.29 1017.53 1017.63 1017.72 1017.63 1017.85 1017.91 1017.85 1017.76 1017.82 1017.94 1018.20 1018.67 1019.03 1019.26 1019.49 1019.59 1019.55 1019.73 1019.62 1019.63 1019.59 1019.52 1019.42 1019.67 1019.65 1019.73 1019.43 1019.83 1019.98
1013.81 1013.57 1013.85 1013.43 1013.61 1014.00 1014.21 1014.84 1015.39 1015.85 1016.16 1016.46 1016.94 1017.38 1017.78 1017.82 1017.83 1017.91 1017.93 1018.10 1018.16 1018.02 1018.08 1018.12 1018.35 1018.68 1019.02 1019.24 1019.45 1019.70 1019.86 1019.94 1019.92 1019.64 1019.47 1019.77 1019.31 1019.12 1019.24 1019.39 1019.53 1020.25 1020.31 1020.30
Wind_Speed
5 11 3 8 3 5 3 3 2 5 3 4 3 6 5 6 3 3 5 6 6 7 7 7 8 4 4 4 5 6 6 6 5 5 5 5 5 4 4 4 5 6 6 8
8 9 5 3 5 3 1 3 5 2 4 9 2 6 2 6 4 1 1 4 4 7 7 9 9 6 5 3 4 5 7 7 7 5 4 4 5 5 5 5 5 6 7 9
7 11 4 6 7 4 5 9 8 9 1 2 6 11 1 5 4 4 3 2 3 4 6 7 8 9 9 7 5 5 6 6 7 6 3 4 4 5 8 4 6 4 8 9
3 3 7 7 5 6 2 6 7 8 9 5 3 3 7 3 6 6 9 8 7 6 6 2 3 4 6 7 5 4 4 5 5 3 4 4 7 7 6 7 6 8 8 9
6 9 9 4 8 4 8 5 6 5 4 8 9 10 10 2 5 6 6 6 5 5 3 1 1 1 1 1 4 3 3 5 4 4 4 5 5 7 6 7 8 10 8 10
10 3 3 9 5 3 3 6 3 4 4 6 7 8 12 4 2 4 4 7 5 5 2 0 1 1 1 1 0 3 4 3 3 4 3 4 5 7 8 9 9 9 10 9
9 6 8 2 5 7 4 10 2 3 3 4 6 8 9 4 1 6 6 7 7 4 4 3 2 2 1 0 1 2 1 2 2 4 4 4 5 6 9 9 9 12 10 10
9 10 7 1 5 6 6 8 7 8 7 10 5 4 8 3 4 7 10 10 9 2 4 2 0 1 2 1 1 1 1 3 4 4 3 4 5 7 8 9 10 10 10 10
6 3 7 2 2 5 4 4 3 6 5 7 5 2 11 1 5 9 11 11 9 5 4 3 2 2 3 1 1 4 3 4 4 2 3 4 5 7 9 10 10 9 11 10
2 3 3 7 5 8 5 4 4 3 7 9 9 5 4 11 9 10 9 9 6 8 4 4 3 2 4 3 2 4 5 5 2 4 4 4 5 8 9 10 12 12 10 11
3 4 8 6 5 3 6 6 1 5 4 9 8 10 10 9 12 13 13 13 5 4 3 3 2 3 5 4 6 6 6 5 4 4 6 5 7 8 9 11 11 10 10 10
3 4 4 2 4 1 3 3 3 6 8 4 7 7 5 11 12 11 12 7 3 4 4 3 5 3 4 6 6 5 5 6 4 4 2 3 7 9 10 11 11 10 10 11
5 3 4 8 8 5 5 3 1 1 4 9 8 7 14 11 8 8 7 7 4 3 2 5 5 4 6 6 6 7 6 6 3 6 5 6 8 10 11 10 10 10 10 12
2 2 6 8 9 5 4 6 3 5 6 9 12 13 10 9 9 8 8 6 6 6 7 8 7 6 9 7 8 9 8 6 2 3 5 8 10 11 10 10 9 9 12 10
3 2 2 3 4 1 1 3 4 7 9 8 13 13 9 9 8 7 6 5 5 7 8 9 9 10 12 13 12 10 6 1 4 6 9 10 11 10 10 9 9 11 8 7
0 2 3 4 2 2 5 3 5 5 8 8 12 14 7 6 6 8 8 8 10 11 11 10 10 12 13 13 12 10 4 4 5 7 10 11 10 10 10 9 11 9 8 8
2 5 5 4 1 4 9 4 5 6 8 8 13 13 9 5 7 8 7 8 9 9 10 11 12 12 12 11 8 7 4 3 6 9 10 10 10 11 11 10 8 10 10 10
5 4 2 4 3 11 5 2 4 8 12 11 9 7 4 3 5 8 11 11 11 12 12 12 12 13 11 10 7 4 5 5 7 9 10 10 12 12 10 10 12 11 9 9
2 4 2 6 8 6 11 9 5 8 11 7 7 3 1 1 5 8 10 10 10 10 11 12 14 13 10 9 6 4 5 6 8 9 10 11 10 10 11 11 10 8 7 6
4 3 6 4 9 12 9 5 1 2 10 5 1 1 3 6 9 10 10 9 10 12 13 14 14 12 10 6 4 4 6 8 9 9 9 9 8 10 9 9 9 8 5 2
5 5 9 9 8 9 6 3 2 9 5 4 3 4 3 4 7 5 5 7 10 10 14 15 14 10 7 4 3 5 7 8 8 7 9 7 10 8 9 9 8 6 5 6
7 5 6 3 9 12 4 3 5 7 3 3 3 4 5 6 4 3 6 8 10 13 16 15 12 10 6 4 3 6 8 7 7 8 6 7 9 7 8 8 7 5 6 7
5 3 5 4 6 3 1 5 3 1 3 2 2 5 5 3 2 5 6 8 11 14 14 13 12 7 4 4 6 7 6 6 7 6 6 6 6 8 7 6 7 5 3 7
5 3 5 2 5 4 5 6 7 3 1 4 5 4 2 2 4 5 7 9 11 13 13 13 12 7 5 4 6 6 6 6 6 5 5 5 6 6 7 7 5 5 5 4
5 7 6 9 11 6 8 5 3 5 5 6 5 4 3 2 3 7 8 9 11 12 12 12 9 5 5 3 6 6 5 6 4 4 5 4 3 5 3 6 7 5 6 6
6 8 7 9 9 5 4 2 6 8 8 6 7 5 2 3 6 8 9 9 10 11 12 10 6 4 4 4 5 5 5 6 3 3 4 5 3 3 4 2 6 5 4 5
Wind_Direction
176 243 297 35 31 30 44 29 33 104 78 264 314 286 335 350 285 183 211 204 198 210 193 184 203 172 187 199 202 212 210 197 221 223 245 238 271 262 273 273 282 287 293 295
203 233 84 122 117 146 303 305 43 157 43 280 290 274 329 22 44 336 213 176 191 198 200 211 210 208 236 254 229 219 231 216 224 232 260 322 328 316 314 316 315 298 291 284
297 77 123 175 171 194 51 351 344 329 347 205 286 233 174 63 95 133 179 179 181 201 221 214 212 213 227 228 231 224 227 230 234 266 247 249 257 229 235 237 285 323 289 301
37 99 178 190 104 314 333 5 313 299 274 342 338 352 125 61 107 109 136 143 152 176 185 170 230 234 222 244 204 237 226 220 211 225 239 265 295 298 339 285 323 310 318 318
89 144 170 173 55 340 48 352 342 307 258 225 56 273 105 167 155 130 137 154 179 190 100 201 161 109 289 179 220 164 175 184 168 214 274 273 288 314 323 317 316 306 297 313
104 94 333 84 96 50 131 266 224 217 216 213 38 310 94 82 352 158 183 211 213 220 171 223 54 329 240 175 192 158 164 166 202 240 247 274 299 322 324 330 311 321 325 322
157 125 116 179 173 158 302 342 292 287 331 11 23 267 48 25 219 286 274 235 227 180 231 208 200 236 91 279 13 39 81 242 228 237 252 297 324 319 301 324 323 328 319 324
190 170 181 95 341 12 41 332 13 336 350 343 118 11 78 29 296 277 269 269 276 230 259 203 131 293 288 100 104 182 200 232 219 248 317 331 320 319 313 337 329 315 317 319
211 137 119 64 131 310 103 21 13 305 188 266 39 65 225 213 280 254 260 260 253 244 248 209 163 231 263 268 311 291 261 239 249 311 313 313 330 334 329 321 316 313 313 323
140 225 212 138 161 74 339 103 289 282 336 324 347 299 315 347 336 331 281 273 263 245 233 190 212 218 247 248 256 251 253 255 280 285 298 348 347 316 322 316 315 313 316 305
194 272 136 192 218 352 172 183 64 276 330 323 318 330 38 357 339 325 319 329 297 241 266 213 243 219 237 244 267 231 247 244 258 310 340 348 317 326 322 318 316 310 308 318
136 266 239 68 86 348 322 17 329 331 342 332 281 304 48 346 330 332 331 336 62 8 14 328 289 256 237 277 287 279 278 286 294 303 244 297 321 319 320 321 310 310 316 312
176 198 198 172 174 181 237 137 97 7 272 299 310 296 8 351 358 21 6 24 49 340 298 312 302 256 314 319 318 293 286 279 290 207 294 314 324 323 329 318 316 318 316 324
268 169 275 294 39 57 176 194 221 273 286 329 308 344 335 12 358 18 13 359 341 359 8 344 311 305 345 349 304 306 286 297 245 320 295 332 335 335 325 323 326 326 343 334
276 194 203 89 93 91 320 271 236 274 318 304 331 318 346 6 353 7 352 5 354 7 5 1 343 340 327 328 329 315 307 300 306 311 339 345 340 335 329 338 346 348 335 318
43 155 180 159 144 265 281 291 279 274 311 299 313 303 37 10 2 32 31 11 5 13 11 7 352 349 349 353 344 345 345 333 325 345 347 346 349 338 349 358 353 331 319 308
182 149 211 268 140 267 258 293 297 303 292 326 309 348 339 353 41 27 13 12 10 8 6 2 358 351 359 353 354 7 36 35 351 354 352 356 350 354 7 352 324 323 317 326
155 170 244 307 203 260 53 72 286 292 296 302 292 291 344 34 74 48 33 22 23 12 3 359 353 347 352 348 14 40 48 11 5 2 3 3 5 7 350 330 1 349 348 352
309 240 184 274 275 312 273 181 226 271 290 320 305 314 308 341 201 64 49 33 25 14 5 353 347 349 346 356 12 29 34 3 7 16 11 17 15 357 348 4 353 346 343 342
130 243 270 267 281 285 332 62 32 259 277 70 334 316 345 319 282 69 35 26 19 10 358 348 337 350 350 6 7 35 10 19 19 21 17 28 4 12 1 9 1 4 357 358
206 242 266 286 287 294 37 45 166 258 342 66 43 40 28 359 32 47 23 20 14 356 352 349 353 356 354 1 28 26 25 28 25 21 33 12 21 11 20 8 24 26 12 48
261 262 263 315 284 283 57 145 266 21 50 69 67 59 78 83 73 30 14 7 359 353 358 357 352 359 9 27 10 33 35 22 28 30 31 23 33 24 33 21 44 33 33 61
244 301 326 258 315 61 17 278 24 318 356 91 121 103 94 89 25 11 355 359 351 357 354 353 346 3 36 53 20 35 29 20 27 38 38 24 38 39 28 33 40 41 45 78
169 178 250 266 264 280 282 243 232 202 239 134 122 114 121 51 7 342 353 355 348 356 353 348 349 16 79 75 50 41 28 17 33 58 43 17 38 26 24 36 22 25 29 76
11 159 253 258 265 257 242 237 217 175 167 151 130 126 107 16 350 344 348 353 347 351 354 354 4 37 92 82 54 38 31 23 32 37 40 25 53 54 21 64 24 34 61 357
186 255 237 278 327 264 320 132 170 171 172 152 147 145 101 341 353 346 347 344 348 341 356 354 27 82 98 63 57 47 29 26 7 20 46 21 14 41 37 35 115 83 39 360